| time (UTC) | temp C | wind direction | speed KPH | gust KPH | rain 1hr cm | rain 24hr cm | rain mn cm | humidity % | barometer mb |
| 20260507223350 | 16 | 0.0 | 0.0 | 0.00 | 0.00 | 0.00 | 69 | 1015.8 | |
| 20260507221350 | 16 | 0.0 | 0.0 | 0.00 | 0.00 | 0.00 | 68 | 1015.8 | |
| 20260507215350 | 17 | 0.0 | 0.0 | 0.00 | 0.00 | 0.00 | 66 | 1015.7 | |
| 20260507213349 | 17 | 0.0 | 0.0 | 0.00 | 0.00 | 0.00 | 66 | 1015.5 | |
| 20260507211349 | 17 | 0.0 | 0.0 | 0.00 | 0.00 | 0.00 | 66 | 1015.5 | |
| 20260507205349 | 17 | 0.0 | 0.0 | 0.00 | 0.00 | 0.00 | 65 | 1015.6 | |
| 20260507203348 | 17 | 0.0 | 0.0 | 0.00 | 0.00 | 0.00 | 65 | 1015.7 | |
| 20260507201348 | 17 | 0.0 | 0.0 | 0.00 | 0.00 | 0.00 | 64 | 1015.6 | |
| 20260507195348 | 17 | 0.0 | 0.0 | 0.00 | 0.00 | 0.00 | 64 | 1015.2 | |
| 20260507193347 | 17 | 0.0 | 0.0 | 0.00 | 0.00 | 0.00 | 63 | 1015.2 | |
| 20260507191347 | 17 | 0.0 | 0.0 | 0.00 | 0.00 | 0.00 | 62 | 1015.2 | |
| 20260507185347 | 18 | 0.0 | 0.0 | 0.00 | 0.00 | 0.00 | 63 | 1015.1 | |
| 20260507183347 | 18 | 0.0 | 0.0 | 0.00 | 0.00 | 0.00 | 62 | 1015.2 | |
| 20260507181346 | 18 | 0.0 | 0.0 | 0.00 | 0.00 | 0.00 | 61 | 1015.2 | |
| 20260507175447 | 18 | 0.0 | 0.0 | 0.00 | 0.00 | 0.00 | 60 | 1015.2 | |
| 20260507173447 | 18 | 0.0 | 0.0 | 0.00 | 0.00 | 0.00 | 58 | 1015.2 | |
| 20260507171447 | 18 | 0.0 | 0.0 | 0.00 | 0.00 | 0.00 | 55 | 1015.3 | |
| 20260507165446 | 20 | 0.0 | 0.0 | 0.00 | 0.00 | 0.00 | 55 | 1015.0 | |
| 20260507163446 | 20 | 0.0 | 0.0 | 0.00 | 0.00 | 0.00 | 51 | 1015.0 | |
| 20260507161446 | 25 | 0.0 | 0.0 | 0.00 | 0.00 | 0.00 | 40 | 1014.9 | |
| 20260507155445 | 26 | 0.0 | 0.0 | 0.00 | 0.00 | 0.00 | 39 | 1014.9 | |
| 20260507153445 | 27 | 0.0 | 0.0 | 0.00 | 0.00 | 0.00 | 35 | 1015.0 | |
| 20260507151445 | 26 | 0.0 | 0.0 | 0.00 | 0.00 | 0.00 | 38 | 1015.1 | |
| 20260507145445 | 28 | 0.0 | 0.0 | 0.00 | 0.00 | 0.00 | 33 | 1014.8 | |
| 20260507143444 | 28 | 0.0 | 0.0 | 0.00 | 0.00 | 0.00 | 33 | 1015.1 | |
| 20260507141444 | 26 | 0.0 | 0.0 | 0.00 | 0.00 | 0.00 | 37 | 1015.3 | |
| 20260507135502 | 26 | 0.0 | 0.0 | 0.00 | 0.00 | 0.00 | 39 | 1015.4 | |
| 20260507133443 | 26 | 0.0 | 0.0 | 0.00 | 0.00 | 0.00 | 39 | 1015.3 | |
| 20260507131443 | 19 | 0.0 | 0.0 | 0.00 | 0.00 | 0.00 | 58 | 1015.5 | |
| 20260507125442 | 22 | 0.0 | 0.0 | 0.00 | 0.00 | 0.00 | 48 | 1015.5 | |
| 20260507123442 | 25 | 0.0 | 0.0 | 0.00 | 0.00 | 0.00 | 41 | 1015.3 | |
| 20260507121442 | 27 | 0.0 | 0.0 | 0.00 | 0.00 | 0.00 | 37 | 1015.1 | |
| 20260507115441 | 26 | 0.0 | 0.0 | 0.00 | 0.00 | 0.00 | 40 | 1015.2 | |
| 20260507113441 | 26 | 0.0 | 0.0 | 0.00 | 0.00 | 0.00 | 41 | 1015.4 | |
| 20260507111441 | 22 | 0.0 | 0.0 | 0.00 | 0.00 | 0.00 | 48 | 1015.6 | |
| 20260507105440 | 21 | 0.0 | 0.0 | 0.00 | 0.00 | 0.00 | 52 | 1015.4 | |
| 20260507103440 | 21 | 0.0 | 0.0 | 0.00 | 0.00 | 0.00 | 54 | 1015.5 | |
| 20260507101439 | 23 | 0.0 | 0.0 | 0.00 | 0.00 | 0.00 | 46 | 1015.4 | |
| 20260507095439 | 18 | 0.0 | 0.0 | 0.00 | 0.00 | 0.00 | 63 | 1015.5 | |
| 20260507093439 | 18 | 0.0 | 0.0 | 0.00 | 0.00 | 0.00 | 64 | 1015.4 | |
| 20260507091438 | 22 | 0.0 | 0.0 | 0.00 | 0.00 | 0.00 | 51 | 1015.4 | |
| 20260507085438 | 18 | 0.0 | 0.0 | 0.00 | 0.00 | 0.00 | 58 | 1015.3 | |
| 20260507083438 | 18 | 0.0 | 0.0 | 0.00 | 0.00 | 0.00 | 61 | 1015.0 | |
| 20260507081438 | 18 | 0.0 | 0.0 | 0.00 | 0.00 | 0.00 | 63 | 1014.9 | |
| 20260507075437 | 17 | 0.0 | 0.0 | 0.00 | 0.00 | 0.00 | 61 | 1014.8 | |
| 20260507073437 | 17 | 0.0 | 0.0 | 0.00 | 0.00 | 0.00 | 60 | 1014.5 | |
| 20260507071436 | 18 | 0.0 | 0.0 | 0.00 | 0.00 | 0.00 | 55 | 1014.4 | |
| 20260507065436 | 17 | 0.0 | 0.0 | 0.00 | 0.00 | 0.00 | 59 | 1014.3 | |
| 20260507063436 | 17 | 0.0 | 0.0 | 0.00 | 0.00 | 0.00 | 59 | 1014.3 | |
| 20260507061436 | 17 | 0.0 | 0.0 | 0.00 | 0.00 | 0.00 | 58 | 1014.1 | |
| 20260507055435 | 17 | 0.0 | 0.0 | 0.00 | 0.00 | 0.00 | 60 | 1014.0 | |
| 20260507053435 | 17 | 0.0 | 0.0 | 0.00 | 0.00 | 0.00 | 61 | 1014.0 | |
| 20260507051435 | 16 | 0.0 | 0.0 | 0.00 | 0.00 | 0.00 | 63 | 1013.8 | |
| 20260507045434 | 16 | 0.0 | 0.0 | 0.00 | 0.00 | 0.00 | 65 | 1013.4 | |
| 20260507043434 | 15 | 0.0 | 0.0 | 0.00 | 0.00 | 0.00 | 66 | 1013.5 | |
| 20260507041434 | 16 | 0.0 | 0.0 | 0.00 | 0.00 | 0.00 | 66 | 1013.2 | |
| 20260507035433 | 16 | 0.0 | 0.0 | 0.00 | 0.00 | 0.00 | 66 | 1013.2 | |
| 20260507033433 | 16 | 0.0 | 0.0 | 0.00 | 0.00 | 0.00 | 66 | 1013.2 | |
| 20260507031433 | 16 | 0.0 | 0.0 | 0.00 | 0.00 | 0.00 | 65 | 1013.2 | |
| 20260507025432 | 16 | 0.0 | 0.0 | 0.00 | 0.00 | 0.00 | 64 | 1013.2 | |
| 20260507023432 | 16 | 0.0 | 0.0 | 0.00 | 0.00 | 0.00 | 64 | 1013.1 | |
| 20260507021432 | 16 | 0.0 | 0.0 | 0.00 | 0.00 | 0.00 | 64 | 1013.1 | |
| 20260507015431 | 16 | 0.0 | 0.0 | 0.00 | 0.00 | 0.00 | 64 | 1013.1 | |
| 20260507013431 | 16 | 0.0 | 0.0 | 0.00 | 0.00 | 0.00 | 65 | 1013.1 | |
| 20260507011431 | 16 | 0.0 | 0.0 | 0.00 | 0.00 | 0.00 | 64 | 1013.3 | |
| 20260507005430 | 16 | 0.0 | 0.0 | 0.00 | 0.00 | 0.00 | 64 | 1013.4 | |
| 20260507003430 | 16 | 0.0 | 0.0 | 0.00 | 0.00 | 0.00 | 65 | 1013.4 | |
| 20260507001430 | 16 | 0.0 | 0.0 | 0.00 | 0.00 | 0.00 | 65 | 1013.3 | |
| 20260506235429 | 16 | 0.0 | 0.0 | 0.00 | 0.00 | 0.00 | 64 | 1013.4 | |
| 20260506233429 | 16 | 0.0 | 0.0 | 0.00 | 0.00 | 0.00 | 64 | 1013.5 | |
| 20260506231429 | 17 | 0.0 | 0.0 | 0.00 | 0.00 | 0.00 | 61 | 1013.6 | |
| 20260506225428 | 17 | 0.0 | 0.0 | 0.00 | 0.00 | 0.00 | 60 | 1013.5 |